{"data":{"norad_id":64425,"epoch":"2026-05-25T05:20:38.275872Z","epoch_age_seconds":62624,"freshness":"FRESH","line1":"1 64425U 25129P   26145.22266523  .00002927  00000+0  25294-3 0  9990","line2":"2 64425  70.0005 241.3865 0003287 262.6649  97.4137 14.98336879 52757","mean_motion":14.98336879,"eccentricity":0.0003287,"inclination_deg":70.0005,"raan_deg":241.3865,"arg_perigee_deg":262.6649,"mean_anomaly_deg":97.4137,"bstar":0.00025294,"rev_number":5275,"period_min":96.106557889776,"perigee_km":569.75009687482,"apogee_km":574.31913969669,"semimajor_km":6950.1716182858,"source":"CELESTRAK","updated_at":"2026-05-25T13:38:20.441569Z"}}